Погода в Нижнем Ломове

Россия / Пензенская область     53°31′48″N   43°40′22″E
темп.,
°C
ветер,
м/с
пор.,
м/с
влажн.,
%
обл.,
%
осадки,
мм/ч
давл.,
гПа
погр.,
м
6 мая, чт
чт600:00+7ююз5118019 0.0 1014201
03:00+6юз411835 0.0 1015203
06:00+8ююз4108394 0.0 1015211
09:00+13ююз61065100 0.0 1015589
12:00+16ююз795498 0.0 10151531
15:00+17ююз71053100 0.0 10141935
18:00+15ююз6106399 0.0 1013516
21:00+11ю41176100 0.0 1014246
7 мая, пт
пт700:00+10ю51374100 0.0 1013297
03:00+10ю51472100 0.0 1013338
06:00+10ю61469100 0.0 1012404
09:00+12ю51069100 0.0 1012556
12:00+13з5675100 0.3 1013950
15:00+8ссз4589100 1.5 1016364
18:00+10ссв35746 0.0 1016635
21:00+6юв22911 0.0 101825
8 мая, сб
сб800:00+5ю12905 0.0 101811
03:00+5вюв229094 0.0 101810
06:00+6вюв2587100 0.0 1017141
09:00+11ююв4575100 0.0 1016614
12:00+15ю6754100 0.0 10131129
15:00+16ю7948100 0.0 10121160
18:00+15ю71265100 0.0 1010693
21:00+14ю61374100 0.0 1010593
9 мая, вс
вс900:00+13ююв71590100 1.3 1008578
03:00+12зюз5991100 1.6 1009556
06:00+9з3791100 0.0 1011516
09:00+8зсз4583100 0.1 1014556
12:00+7ссз4583100 0.7 1015501
15:00+7ссз3592100 6.1 1017750
18:00+7ссв3692100 2.3 1019654
21:00+6ссв3993100 2.9 1020498
10 мая, пн
пн1000:00+6с41094100 0.0 1022393
03:00+5ссв51394100 0.0 1024456
06:00+6ссв713908 0.0 1025568
09:00+8св71381100 0.0 1026713
12:00+9св71278100 0.0 1027704
15:00+11св8116989 0.0 1028789
18:00+11св7137591 0.0 1027662
21:00+8св514865 0.0 1028388